ARIANE 2 DEB, 28567

Orbit data source: Space-Track

ARIANE 2 DEB, 28567 is space debris in HEO originally from a launch on Fri, 27 Jan 1989 UTC launched from the French Guiana (FRGUI). Debris objects in space refer to the collection of defunct objects orbiting the Earth. Examples of debris include non-operational satellites, rocket bodies, and fragments generated from explosions, collisions, or faulty payload assembly.

Loading next visibility...
ARIANE 2 DEB details
Identifier
28567, 1989-006AJ
Orbit
HEO
Last TLE update5 days ago
Origin
Flag of FRArianespace (FR)
ManufacturerEADS/LV
MissionSpacecraft
Bus & MotorUnknown
MassUnknown
Launch date (UTC)
1989-01-27 (36 years ago)
Launch vehicleUnknown
Launch site
French Guiana (FRGUI)
Object type
Payload
Rocket body
Debris
Shape & HBRUnknown
Radar Cross SectionMedium (>0.1 m² and <1 m²)

Expand to show TLE details & history

TLE from 5 days ago
0 ARIANE 2 DEB
1 28567U 89006AJ  24356.55954476  .00001655  00000-0  11225-1 0  9995
2 28567   7.4307 189.0979 7101629 225.7289  47.8011  2.37198723186698
Epoch: 2024-12-21T13:25Z
Definitive object data (Epoch: 2024-12-21T13:25:44.667Z)
Latitude-0.00002°
Longitude-103.05739°
Altitude16,884.864 km
Speed4.181 km/s
True Right ascension12h 35m 57s
True Declination0° 00' 00"
Sunlit
Object was in daylight at TLE epoch
Visualization TLE readout
Latitude5.86599°
Longitude-53.00877°
Altitude34,159.989 km
Speed1.698 km/s
Apparent Right ascension15h 38m 50s
Apparent Declination0° 06' 25"
Sunlit
Object is in daylight
Visualization observer readout
Local Sidereal Time18:12:23
Azimuth231.076° WSW
Elevation37.04°
Doppler factor1
Orbital elements
Apogee altitude34,246.806 km
Perigee altitude506.947 km
Semi-major axis23,755.014 km
Eccentricity0.7101629
Inclination7.4307°
RAAN189.0979°
Arg. of periapsis225.7289°
True anomaly134.16499°
Mean anomaly47.8011°
Eccentric anomaly88.47604°
Mean motion0.5928 °/min
BSTAR0.011225
Orbital period607.28 mins
Loading maneuver chart data...
Loading historical data...
Loading historical data...
Loading historical data...
Loading historical data...
Loading historical data...
Loading historical data...
Loading historical data...

ARIANE 2 DEB Visibility forecast

Observer location: undefined°, undefined

Span
Click to sort rows by Start time (UTC) header in descending order
Start Az.
Max El. time (UTC)
Max El. Az.
Max El.
End time (UTC)
End Az.
269 mins2024-12-26 18:49:49.880Z231.059° WSW2024-12-26 18:49:49.880Z231.059° WSW31.057°2024-12-26 23:18:49.880Z172.123° S
520 mins2024-12-27 10:09:49.880Z178.608° S2024-12-27 17:09:49.880Z160.453° S36.901°2024-12-27 18:49:49.880Z147.522° SSE
|